Time,TemperatureF,DewpointF,PressureIn,WindDirection,WindDirectionDegrees,WindSpeedMPH,WindSpeedGustMPH,Humidity,HourlyPrecipIn,Conditions,Clouds,dailyrainin,SoftwareType,DateUTC
2013-09-02 00:03:00,75.0,61.0,29.86,North,355,0.0,0.0,61,0.00,,,0.00,,2013-09-02 05:03:00,
2013-09-02 00:13:00,75.0,61.0,29.86,North,355,0.0,0.0,61,0.00,,,0.00,,2013-09-02 05:13:00,
2013-09-02 00:23:00,74.0,61.0,29.86,North,355,0.0,0.0,63,0.00,,,0.00,,2013-09-02 05:23:00,
2013-09-02 00:52:00,73.0,61.0,29.86,NNW,344,0.0,0.0,65,0.00,,,0.00,,2013-09-02 05:52:00,
2013-09-02 01:22:00,72.0,61.0,29.86,North,11,0.0,0.0,69,0.00,,,0.00,,2013-09-02 06:22:00,
2013-09-02 01:43:00,71.0,62.0,29.86,North,11,0.0,0.0,72,0.00,,,0.00,,2013-09-02 06:43:00,
2013-09-02 01:52:00,69.0,61.0,29.86,North,11,0.0,0.0,77,0.00,,,0.00,,2013-09-02 06:52:00,
2013-09-02 02:11:00,68.0,61.0,29.86,North,11,0.0,0.0,78,0.00,,,0.00,,2013-09-02 07:11:00,
2013-09-02 02:21:00,67.0,61.0,29.85,North,11,0.0,0.0,82,0.00,,,0.00,,2013-09-02 07:21:00,
2013-09-02 02:52:00,66.0,62.0,29.85,NW,322,0.0,0.0,86,0.00,,,0.00,,2013-09-02 07:52:00,
2013-09-02 03:22:00,66.0,61.0,29.86,North,360,0.0,0.0,85,0.00,,,0.00,,2013-09-02 08:22:00,
2013-09-02 03:52:00,67.0,61.0,29.86,North,349,0.0,0.0,81,0.00,,,0.00,,2013-09-02 08:52:00,
2013-09-02 04:22:00,66.0,60.0,29.87,NNW,346,0.0,0.0,81,0.00,,,0.00,,2013-09-02 09:22:00,
2013-09-02 04:53:00,66.0,61.0,29.88,NNW,331,0.0,0.0,83,0.00,,,0.00,,2013-09-02 09:53:00,
2013-09-02 05:22:00,65.0,60.0,29.89,NW,325,0.0,0.0,83,0.00,,,0.00,,2013-09-02 10:22:00,
2013-09-02 05:53:00,65.0,60.0,29.90,NNW,345,0.0,0.0,83,0.00,,,0.00,,2013-09-02 10:53:00,
2013-09-02 06:11:00,65.0,60.0,29.90,North,10,0.0,0.0,84,0.00,,,0.00,,2013-09-02 11:11:00,
2013-09-02 06:22:00,65.0,60.0,29.90,North,360,0.0,0.0,84,0.00,,,0.00,,2013-09-02 11:22:00,
2013-09-02 06:52:00,64.0,59.0,29.91,North,355,0.0,0.0,85,0.00,,,0.00,,2013-09-02 11:52:00,
2013-09-02 07:12:00,64.0,60.0,29.91,North,355,0.0,0.0,86,0.00,,,0.00,,2013-09-02 12:12:00,
2013-09-02 07:21:00,64.0,60.0,29.92,NNW,327,1.0,4.0,87,0.00,,,0.00,,2013-09-02 12:21:00,
2013-09-02 07:52:00,65.0,60.0,29.93,NNE,21,0.0,1.0,85,0.00,,,0.00,,2013-09-02 12:52:00,
2013-09-02 08:11:00,66.0,61.0,29.93,North,360,1.0,4.0,85,0.00,,,0.00,,2013-09-02 13:11:00,
2013-09-02 08:22:00,67.0,62.0,29.94,NNE,27,1.0,4.0,83,0.00,,,0.00,,2013-09-02 13:22:00,
2013-09-02 08:52:00,69.0,61.0,29.93,NNW,343,0.0,4.0,77,0.00,,,0.00,,2013-09-02 13:52:00,
2013-09-02 09:11:00,70.0,62.0,29.94,NNE,20,1.0,5.0,75,0.00,,,0.00,,2013-09-02 14:11:00,
2013-09-02 09:22:00,71.0,62.0,29.94,NNE,30,1.0,6.0,73,0.00,,,0.00,,2013-09-02 14:22:00,
2013-09-02 09:52:00,74.0,63.0,29.95,NNE,29,1.0,5.0,68,0.00,,,0.00,,2013-09-02 14:52:00,
2013-09-02 10:12:00,75.0,63.0,29.96,NNE,26,1.0,4.0,67,0.00,,,0.00,,2013-09-02 15:12:00,
2013-09-02 10:23:00,76.0,62.0,29.96,North,355,0.0,6.0,63,0.00,,,0.00,,2013-09-02 15:23:00,
2013-09-02 10:55:00,78.0,61.0,29.96,NW,317,0.0,3.0,55,0.00,,,0.00,,2013-09-02 15:55:00,
2013-09-02 11:24:00,82.0,60.0,29.96,NE,42,1.0,4.0,48,0.00,,,0.00,,2013-09-02 16:24:00,
2013-09-02 11:53:00,84.0,61.0,29.96,NW,323,0.0,4.0,46,0.00,,,0.00,,2013-09-02 16:53:00,
2013-09-02 12:23:00,83.0,61.0,29.96,North,360,0.0,4.0,47,0.00,,,0.00,,2013-09-02 17:23:00,
2013-09-02 12:52:00,84.0,60.0,29.96,North,350,1.0,4.0,45,0.00,,,0.00,,2013-09-02 17:52:00,
2013-09-02 13:13:00,83.0,59.0,29.96,NNW,346,0.0,4.0,44,0.00,,,0.00,,2013-09-02 18:13:00,
2013-09-02 13:22:00,83.0,58.0,29.96,NNW,340,3.0,7.0,43,0.00,,,0.00,,2013-09-02 18:22:00,
2013-09-02 13:52:00,84.0,58.0,29.95,North,5,0.0,6.0,42,0.00,,,0.00,,2013-09-02 18:52:00,
2013-09-02 14:12:00,85.0,59.0,29.95,NE,38,0.0,0.0,41,0.00,,,0.00,,2013-09-02 19:12:00,
2013-09-02 14:22:00,87.0,60.0,29.95,NNE,24,0.0,0.0,40,0.00,,,0.00,,2013-09-02 19:22:00,
2013-09-02 14:52:00,85.0,58.0,29.94,NNE,33,2.0,8.0,40,0.00,,,0.00,,2013-09-02 19:52:00,
2013-09-02 15:22:00,85.0,58.0,29.94,NE,44,0.0,0.0,40,0.00,,,0.00,,2013-09-02 20:22:00,
2013-09-02 15:52:00,81.0,57.0,29.93,NE,50,0.0,7.0,44,0.00,,,0.00,,2013-09-02 20:52:00,
2013-09-02 16:23:00,83.0,57.0,29.93,NNE,32,2.0,7.0,41,0.00,,,0.00,,2013-09-02 21:23:00,
2013-09-02 16:55:00,83.0,58.0,29.93,NNE,13,0.0,4.0,42,0.00,,,0.00,,2013-09-02 21:55:00,
2013-09-02 17:24:00,83.0,54.0,29.93,NNE,22,0.0,0.0,37,0.00,,,0.00,,2013-09-02 22:24:00,
2013-09-02 17:54:00,81.0,54.0,29.93,NNE,16,0.0,0.0,39,0.00,,,0.00,,2013-09-02 22:54:00,
2013-09-02 18:22:00,80.0,55.0,29.93,North,5,0.0,0.0,42,0.00,,,0.00,,2013-09-02 23:22:00,
2013-09-02 18:53:00,78.0,55.0,29.93,North,350,0.0,0.0,45,0.00,,,0.00,,2013-09-02 23:53:00,
2013-09-02 19:12:00,78.0,56.0,29.93,NNE,18,0.0,0.0,47,0.00,,,0.00,,2013-09-03 00:12:00,
2013-09-02 19:21:00,76.0,55.0,29.94,North,355,0.0,0.0,49,0.00,,,0.00,,2013-09-03 00:21:00,
2013-09-02 19:42:00,76.0,57.0,29.94,NNE,19,0.0,0.0,51,0.00,,,0.00,,2013-09-03 00:42:00,
2013-09-02 19:52:00,74.0,57.0,29.94,NNE,18,0.0,0.0,55,0.00,,,0.00,,2013-09-03 00:52:00,
2013-09-02 20:11:00,73.0,56.0,29.94,NNE,18,0.0,0.0,56,0.00,,,0.00,,2013-09-03 01:11:00,
2013-09-02 20:21:00,71.0,55.0,29.95,NNE,18,0.0,0.0,58,0.00,,,0.00,,2013-09-03 01:21:00,
2013-09-02 20:42:00,71.0,56.0,29.95,NNE,18,0.0,0.0,60,0.00,,,0.00,,2013-09-03 01:42:00,
2013-09-02 20:52:00,72.0,55.0,29.96,NNE,26,0.0,0.0,56,0.00,,,0.00,,2013-09-03 01:52:00,
2013-09-02 21:12:00,72.0,55.0,29.96,NW,320,0.0,0.0,55,0.00,,,0.00,,2013-09-03 02:12:00,
2013-09-02 21:21:00,71.0,54.0,29.97,North,5,0.0,0.0,56,0.00,,,0.00,,2013-09-03 02:21:00,
2013-09-02 21:42:00,71.0,55.0,29.97,NNW,327,0.0,0.0,57,0.00,,,0.00,,2013-09-03 02:42:00,
2013-09-02 21:52:00,70.0,55.0,29.98,NNW,334,0.0,0.0,58,0.00,,,0.00,,2013-09-03 02:52:00,
2013-09-02 22:23:00,68.0,54.0,29.98,NNW,342,0.0,0.0,61,0.00,,,0.00,,2013-09-03 03:23:00,
2013-09-02 22:55:00,66.0,55.0,29.99,NNW,342,0.0,0.0,67,0.00,,,0.00,,2013-09-03 03:55:00,
2013-09-02 23:13:00,65.0,55.0,29.99,NNW,342,0.0,0.0,69,0.00,,,0.00,,2013-09-03 04:13:00,
2013-09-02 23:25:00,65.0,56.0,29.99,NNW,344,0.0,0.0,72,0.00,,,0.00,,2013-09-03 04:25:00,
2013-09-02 23:34:00,65.0,56.0,29.99,NNW,344,0.0,0.0,72,0.00,,,0.00,,2013-09-03 04:34:00,
2013-09-02 23:53:00,64.0,56.0,29.99,NNW,344,0.0,0.0,75,0.00,,,0.00,,2013-09-03 04:53:00,